Probability
0 0 0 0 0 0 0 0 0 0 0 0 0 0 0 0 0 0 0 0 0 0 0 0 0 0 0 0 0 0 0 0 0 0 0 0 0 0
3 0 0 0 0 0 0 0 0 0 0 0 0 0 0 0 0 0 0 0 0 0 0 0 0 0 0 0 0 0 0 0 0 0 0 0 0 0
3 0 0 0 0 0 0 0 0 0 0 0 0 0 0 0 0 0 0 0 0 0 0 0 0 0 0 0 0 0 0 0 0 0 0 0 0 0
3 0 0 0 0 0 0 0 0 0 0 0 0 0 0 0 0 0 0 0 0 0 0 0 0 0 0 0 0 0 0 0 0 0 0 0 0 0
0 0 0 0 0 0 0 0 0 0 0 0 0 0 0 0 0 0 0 0 0 0 0 0 0 0 0 0 0 0 0 0 0 0 0 0 0 0
0 0 0 0 0 0 0 0 0 0 0 0 0 0 0 0 0 0 0 0 0 0 0 0 0 0 0 0 0 0 0 0 0 0 0 0 0 0
0 0 0 0 0 0 0 0 0 0 0 0 0 0 0 0 0 0 0 0 0 0 0 0 0 0 0 0 0 0 0 0 0 0 0 0 0 0
0 0 0 0 0 0 0 0 0 0 0 0 0 0 0 0 0 0 0 0 0 0 0 0 0 0 0 0 0 0 0 0 0 0 0 0 0 0
0 0 0 0 0 0 0 0 0 0 0 0 0 0 0 0 0 0 0 0 0 0 0 0 0 0 0 0 0 0 0 0 0 0 0 0 0 0
0 0 0 0 0 0 0 0 0 0 0 0 0 0 0 0 0 0 0 0 0 0 0 0 0 0 0 0 0 0 0 0 0 0 0 0 0 0
0 0 0 0 0 0 0 0 0 0 0 0 0 0 0 0 0 0 0 0 0 0 0 0 0 0 0 0 0 0 0 0 0 0 0 0 0 0
0 0 0 0 0 0 0 0 0 0 0 0 0 0 0 0 0 0 0 0 0 0 0 0 0 0 0 0 0 0 0 0 0 0 0 0 0 0
0 0 0 0 0 0 0 0 0 0 0 0 0 0 0 0 0 0 0 0 0 0 0 0 0 0 0 0 0 0 0 0 0 0 0 0 0 0
0 0 0 0 0 0 0 0 0 0 0 0 0 0 0 0 0 0 0 0 0 0 0 0 0 0 0 0 0 0 0 0 0 0 0 0 0 0
0 0 0 0 0 0 0 0 0 0 0 0 0 0 0 0 0 0 0 0 0 0 0 0 0 0 0 0 0 0 0 0 0 0 0 0 0 0
0 0 0 0 0 0 0 0 0 0 0 0 0 0 0 0 0 0 0 0 0 0 0 0 0 0 0 0 0 0 0 0 0 0 0 0 0 0
0 0 0 0 0 0 0 0 0 0 0 0 0 0 0 0 0 0 0 0 0 0 0 0 0 0 0 0 0 0 0 0 0 0 0 0 0 0
0 0 0 0 0 0 0 0 0 0 0 0 0 0 0 0 0 0 0 0 0 0 0 0 0 0 0 0 0 0 0 0 0 0 0 0 0 0
0 0 0 0 0 0 0 0 0 0 0 0 0 0 0 0 0 0 0 0 0 0 0 0 0 0 0 0 0 0 0 0 0 0 0 0 0 0
0 0 0 0 0 0 0 0 0 0 0 0 0 0 0 0 0 0 0 0 0 0 0 0 0 0 0 0 0 0 0 0 0 0 0 0 0 0
0 0 0 0 0 0 0 0 0 0 0 0 0 0 0 0 0 0 0 0 0 0 0 0 0 0 0 0 0 0 0 0 0 0 0 0 0 0
0 0 0 0 0 0 0 0 0 0 0 0 0 0 0 0 0 0 0 0 0 0 0 0 0 0 0 0 0 0 0 0 0 0 0 0 0 0
0 0 0 0 0 0 0 0 0 0 0 0 0 0 0 0 0 0 0 0 0 0 0 0 0 0 0 0 0 0 0 0 0 0 0 0 0 0
Height
5837 5836 5836 5836 5835 5834 5833 5832 5832 5831 5830 5830 5829 5828 5828 5828 5828 5828 5827 5826 5826 5825 5825 5824 5823 5822 5821 5820 5819 5818 5817 5816 5815 5814 5813 5812 5811 5810
5833 5833 5832 5832 5831 5830 5829 5828 5827 5827 5826 5825 5824 5824 5824 5824 5824 5823 5823 5822 5822 5821 5820 5819 5818 5817 5816 5815 5814 5813 5812 5811 5810 5809 5808 5806 5805 5804
5829 5829 5828 5828 5827 5826 5825 5824 5823 5823 5822 5821 5820 5820 5819 5819 5819 5819 5819 5818 5817 5817 5816 5815 5814 5813 5812 5811 5809 5808 5807 5806 5804 5803 5802 5801 5799 5798
5825 5825 5824 5823 5823 5822 5822 5821 5820 5819 5818 5817 5816 5816 5815 5815 5815 5815 5815 5814 5813 5812 5811 5810 5809 5808 5807 5806 5804 5803 5802 5800 5799 5797 5796 5795 5793 5791
5821 5820 5820 5819 5819 5818 5817 5817 5816 5815 5814 5813 5813 5812 5812 5811 5811 5811 5810 5809 5809 5808 5807 5806 5804 5803 5802 5800 5799 5797 5795 5794 5792 5791 5789 5787 5786 5784
5817 5816 5815 5815 5814 5814 5813 5812 5812 5811 5810 5809 5809 5809 5808 5807 5807 5806 5806 5805 5804 5803 5802 5801 5799 5797 5796 5794 5793 5791 5789 5787 5785 5784 5782 5780 5778 5776
5812 5812 5811 5810 5810 5810 5809 5808 5808 5807 5806 5806 5805 5805 5804 5803 5803 5802 5801 5800 5799 5798 5797 5795 5794 5792 5790 5788 5786 5784 5782 5780 5778 5776 5774 5772 5770 5768
5808 5808 5807 5806 5806 5805 5804 5804 5804 5803 5802 5802 5801 5801 5800 5799 5798 5797 5796 5796 5794 5793 5792 5790 5788 5786 5784 5782 5780 5777 5775 5773 5771 5769 5766 5764 5761 5759
5804 5804 5803 5802 5801 5801 5800 5800 5799 5799 5798 5798 5797 5796 5795 5795 5794 5793 5792 5790 5789 5787 5786 5784 5782 5780 5778 5775 5773 5770 5768 5765 5763 5761 5758 5755 5753 5750
5800 5799 5798 5797 5797 5796 5796 5795 5795 5794 5794 5793 5792 5792 5791 5790 5789 5788 5787 5785 5783 5782 5780 5778 5776 5773 5771 5768 5765 5763 5760 5758 5755 5752 5750 5747 5744 5741
5795 5795 5794 5793 5792 5792 5791 5791 5791 5790 5789 5789 5788 5787 5786 5785 5784 5783 5781 5780 5778 5776 5773 5771 5769 5767 5764 5761 5758 5755 5752 5750 5747 5744 5741 5738 5736 5732
5791 5790 5789 5788 5788 5787 5787 5786 5786 5786 5785 5784 5783 5782 5781 5780 5778 5777 5775 5773 5771 5769 5767 5765 5762 5759 5757 5754 5751 5748 5744 5741 5738 5736 5733 5730 5726 5723
5786 5785 5784 5784 5783 5782 5782 5781 5781 5780 5780 5779 5778 5777 5776 5774 5773 5771 5769 5767 5765 5763 5760 5757 5755 5752 5749 5746 5743 5739 5736 5733 5730 5727 5724 5721 5717 5714
5781 5781 5780 5779 5778 5777 5777 5776 5776 5775 5775 5774 5773 5772 5770 5768 5766 5764 5762 5760 5758 5755 5753 5750 5747 5744 5741 5738 5735 5731 5728 5725 5722 5718 5715 5712 5708 5705
5777 5776 5775 5774 5773 5772 5772 5771 5771 5770 5769 5768 5767 5766 5764 5762 5760 5758 5756 5753 5751 5748 5745 5743 5739 5736 5733 5730 5727 5724 5720 5717 5713 5710 5706 5703 5699 5696
5771 5770 5769 5768 5768 5767 5766 5765 5764 5764 5763 5762 5761 5759 5757 5755 5753 5751 5749 5746 5744 5741 5738 5735 5732 5729 5725 5722 5719 5715 5712 5708 5705 5701 5698 5694 5690 5686
5766 5765 5764 5763 5762 5761 5760 5759 5758 5757 5756 5755 5754 5752 5750 5748 5746 5744 5741 5739 5736 5734 5731 5728 5724 5721 5717 5714 5711 5707 5703 5700 5696 5692 5689 5685 5681 5677
5760 5759 5758 5757 5756 5755 5754 5753 5752 5751 5749 5748 5746 5745 5743 5741 5738 5736 5733 5731 5728 5725 5723 5719 5716 5713 5710 5706 5703 5699 5695 5691 5687 5684 5680 5676 5672 5668
5753 5753 5751 5750 5749 5748 5746 5745 5744 5743 5742 5740 5738 5736 5734 5732 5730 5727 5725 5722 5720 5717 5713 5710 5707 5704 5701 5698 5695 5691 5687 5683 5679 5675 5671 5667 5663 5659
5746 5745 5744 5742 5741 5740 5739 5737 5736 5735 5733 5732 5730 5728 5726 5723 5721 5719 5716 5713 5710 5707 5704 5701 5698 5695 5692 5689 5686 5683 5678 5674 5670 5666 5663 5658 5654 5649
5738 5737 5736 5734 5733 5732 5731 5729 5727 5726 5725 5723 5721 5719 5717 5715 5712 5710 5707 5704 5702 5699 5696 5692 5689 5686 5683 5680 5677 5674 5670 5665 5661 5658 5654 5650 5645 5641
5730 5729 5727 5726 5725 5724 5722 5720 5719 5717 5716 5714 5712 5710 5708 5706 5703 5701 5698 5696 5693 5690 5687 5683 5680 5677 5674 5671 5668 5665 5661 5657 5653 5648 5644 5640 5635 5631
5721 5720 5719 5717 5716 5715 5713 5711 5710 5708 5707 5705 5703 5701 5699 5697 5694 5692 5689 5687 5684 5681 5678 5674 5671 5668 5665 5662 5659 5656 5652 5648 5644 5639 5635 5630 5625 5621
Wind_Speed
15 15 15 15 14 15 15 16 16 16 15 15 16 16 15 15 14 14 14 14 13 14 14 15 16 16 17 17 17 17 17 18 18 18 18 19 19 20
15 15 15 15 14 15 15 15 16 16 16 16 16 16 16 15 15 14 14 14 15 15 15 16 16 17 17 17 17 18 18 19 19 20 21 21 21 21
16 16 16 15 15 15 15 15 15 15 15 15 15 15 15 15 16 16 16 15 16 16 17 17 17 18 18 18 19 19 20 20 21 21 21 21 21 22
16 17 16 16 15 15 15 15 15 15 15 15 14 15 15 16 16 17 16 16 16 17 18 18 18 19 19 20 20 21 22 22 21 21 22 22 23 24
17 17 16 16 15 15 16 16 15 15 14 14 14 15 16 16 16 16 16 17 17 18 18 18 19 19 20 21 22 22 23 23 23 24 24 24 25 25
16 16 15 16 16 15 15 15 15 15 15 15 15 15 15 16 16 16 17 17 17 18 19 19 20 21 21 22 23 24 24 24 24 25 25 25 26 27
16 15 15 16 16 15 15 15 14 15 15 16 16 15 15 15 16 17 17 18 18 19 19 20 21 21 22 22 23 23 24 25 25 25 25 26 27 28
15 15 16 16 16 16 16 16 15 16 16 16 16 16 16 16 17 17 17 18 19 19 20 20 21 22 23 23 24 24 25 25 26 27 27 28 28 28
16 16 16 16 17 17 17 17 17 16 16 16 16 16 16 17 17 18 19 20 20 20 21 22 22 23 24 24 24 25 26 27 27 28 29 28 28 29
16 17 17 17 17 16 16 16 15 16 16 16 17 17 17 18 18 19 20 21 22 22 22 23 23 24 25 25 25 26 26 27 29 29 28 28 29 29
17 17 17 17 17 16 16 16 16 16 17 17 17 17 18 19 19 20 21 22 22 22 23 24 25 25 25 25 26 27 28 28 29 29 29 29 30 31
17 17 16 17 17 17 18 17 17 17 18 18 18 18 19 20 21 22 22 22 22 23 24 25 26 26 26 27 28 28 29 29 29 29 30 31 31 32
17 17 17 17 18 18 17 17 17 18 19 18 19 19 20 21 22 23 23 23 24 25 26 26 27 27 27 28 29 29 30 30 30 30 30 31 31 31
17 18 18 19 18 18 18 18 18 19 19 20 20 20 21 22 23 23 23 24 25 26 27 28 28 28 28 28 29 30 30 30 30 30 30 30 31 32
18 18 19 19 19 19 19 19 20 20 20 21 21 22 23 23 24 24 25 26 27 27 28 28 28 28 29 29 29 30 30 30 30 30 30 31 31 32
19 19 19 20 19 19 20 20 21 21 22 22 23 24 24 25 25 26 27 27 27 28 28 29 29 29 29 30 30 29 30 30 31 31 31 32 32 33
20 20 19 20 20 21 21 22 23 23 24 24 25 25 26 27 27 28 28 28 28 29 29 30 29 29 29 30 30 30 30 31 31 31 31 32 32 32
21 21 21 21 21 22 23 24 24 25 25 25 26 27 27 28 29 29 29 29 28 29 30 30 30 30 29 29 30 30 30 30 31 31 31 31 32 33
23 23 23 23 23 23 24 24 25 26 26 27 27 28 28 28 29 30 30 30 30 30 30 31 31 31 30 29 30 30 31 30 30 30 30 31 32 33
25 25 25 24 24 25 26 26 26 27 27 27 28 28 28 29 29 29 30 30 31 31 30 30 31 30 30 29 29 30 31 31 31 31 32 32 33 34
25 25 25 25 25 26 26 27 27 27 27 28 28 28 28 29 29 30 30 30 30 30 31 31 30 30 29 29 30 30 31 32 32 33 34 34 34 35
26 26 26 26 26 27 27 27 27 27 27 27 28 28 28 29 30 30 30 30 30 31 31 31 31 31 30 30 30 30 31 32 33 34 35 35 35 35
27 27 27 27 28 28 28 27 27 27 27 28 28 28 28 29 29 29 30 30 31 31 31 31 31 31 30 30 30 30 31 32 33 34 34 35 36 36
Wind_Direction
286 288 289 289 288 288 286 286 285 283 280 280 279 279 281 285 287 288 290 292 293 293 292 293 293 292 292 292 292 292 291 291 291 291 289 289 288 287
287 287 287 287 290 289 288 286 287 285 283 283 281 280 280 281 284 287 287 290 291 292 293 294 295 296 294 293 293 293 293 291 291 291 291 291 290 288
284 285 285 286 287 288 290 290 287 286 284 285 283 283 281 279 281 284 288 290 291 294 295 295 295 295 296 294 294 295 296 295 293 294 294 293 293 292
283 284 284 285 285 286 289 290 288 287 284 285 284 284 283 281 282 286 289 291 293 294 296 296 296 296 296 295 294 294 294 295 293 294 293 293 293 293
284 284 283 285 285 286 288 287 288 287 284 281 284 286 286 283 282 285 287 290 292 293 295 296 296 296 296 296 295 294 295 294 293 293 293 292 293 292
285 286 283 283 284 285 286 286 288 288 284 283 284 286 283 283 283 285 287 289 291 293 295 297 297 297 297 297 296 296 297 296 295 294 293 292 293 292
286 286 286 287 286 287 287 286 286 288 287 287 286 287 286 287 286 286 286 289 291 294 296 298 300 300 300 299 299 299 299 299 299 298 297 296 294 293
288 288 286 285 284 283 284 284 283 284 286 287 287 288 289 290 291 291 291 292 294 296 298 299 299 301 301 301 301 300 299 299 299 299 298 298 296 294
286 286 285 285 283 281 281 284 283 283 286 288 287 287 289 290 291 293 294 295 296 297 297 299 299 300 301 301 301 301 301 300 300 299 298 297 296 296
286 284 287 284 280 277 279 282 283 284 287 289 288 288 289 289 290 293 295 296 296 296 297 299 300 301 302 302 302 302 302 302 301 300 299 299 298 298
288 287 287 286 285 279 277 278 280 283 286 290 291 289 289 291 293 294 296 297 297 297 297 299 300 301 301 302 302 303 303 303 302 301 300 300 299 299
289 289 288 287 286 284 281 279 279 280 283 288 290 289 291 294 295 296 296 297 297 298 301 301 301 300 301 302 302 303 303 303 302 302 302 302 302 301
290 289 288 287 285 284 285 283 280 279 283 287 290 290 292 295 295 296 297 298 298 300 302 303 303 302 302 303 303 304 303 303 302 302 303 303 304 304
290 290 288 287 284 282 284 283 282 283 286 289 290 292 293 296 297 297 297 298 299 300 302 304 304 303 302 303 303 303 303 303 302 302 303 304 305 305
288 289 288 286 283 282 283 282 282 284 287 290 291 292 293 295 296 297 299 298 298 300 303 305 305 304 304 303 303 302 302 302 303 303 303 304 305 306
288 289 289 287 285 284 284 284 283 284 287 289 290 292 293 294 295 297 297 298 299 302 303 305 306 305 305 304 304 303 303 303 303 304 305 306 306 307
287 289 290 287 286 286 284 284 284 285 286 288 289 291 293 295 296 297 298 298 299 299 301 303 305 305 304 305 305 305 305 305 304 305 306 306 307 308
287 289 290 288 287 287 286 283 283 284 287 288 289 292 293 294 296 297 297 298 298 299 300 301 302 304 305 306 307 307 306 306 306 306 306 307 309 310
285 288 288 289 288 288 287 286 285 285 287 289 290 292 293 294 296 297 298 298 298 299 299 299 300 301 303 305 306 307 307 307 308 308 308 309 310 311
284 286 286 288 289 289 290 288 286 285 287 289 290 291 293 295 297 298 298 299 300 300 300 301 301 300 301 303 305 306 307 307 309 309 309 309 310 310
288 288 287 288 288 291 292 290 287 286 287 288 290 291 293 295 296 297 299 300 300 302 302 302 301 300 300 302 304 306 307 307 308 309 309 310 310 310
288 288 288 287 287 290 292 292 290 288 288 288 289 291 293 295 295 296 298 299 300 301 303 302 300 300 301 302 304 305 307 307 309 310 310 310 310 311
286 286 286 287 288 290 292 292 290 289 288 288 289 291 293 295 296 296 297 299 301 301 302 302 301 300 301 302 304 306 307 308 309 311 311 311 311 312